Location: Newark
(47.3004°N, 2.1933°W)
Time: 14:39:05
(UTC+00:00)

Envisat - Visible Passes

Search period start: 16 October 2019 00:00
Search period end: 26 October 2019 00:00
Orbit: 764 x 766 km, 98.1° (Epoch: 16 October)

Date Brightness Start Highest point End Pass type
(mag) Time Alt. Az. Time Alt. Az. Time Alt. Az.
16 Oct 3.4 18:20:12 10° S 18:25:16 70° WSW 18:30:22 10° NNW visible
17 Oct 3.1 17:43:34 10° SSE 17:48:32 58° ENE 17:53:32 10° N visible
17 Oct 5.6 19:24:12 10° SW 19:27:56 20° W 19:31:42 10° NW visible
18 Oct 6.2 05:50:30 10° NE 05:53:33 16° E 05:56:36 10° SE visible
18 Oct 4.4 18:46:05 10° SSW 18:50:52 41° W 18:55:41 10° NNW visible
19 Oct 3.1 18:08:54 10° SSE 18:13:59 86° WSW 18:19:07 10° NNW visible
19 Oct 6.2 19:51:54 10° WSW 19:53:47 12° W 19:55:40 10° WNW visible
20 Oct 5.3 19:12:25 10° SSW 19:16:34 25° W 19:20:44 10° NW visible
21 Oct 6.4 05:39:58 10° ENE 05:42:08 13° E 05:44:18 10° ESE visible
21 Oct 3.9 18:34:36 10° S 18:39:33 51° W 18:44:31 10° NNW visible
22 Oct 2.9 17:57:40 10° SSE 18:02:44 78° ENE 18:07:50 10° N visible
22 Oct 6.0 19:39:28 10° WSW 19:42:22 15° W 19:45:15 10° NW visible
23 Oct 6.0 06:04:07 10° NE 06:07:59 21° E 06:11:48 10° SE visible
23 Oct 4.9 19:00:44 10° SSW 19:05:12 31° W 19:09:42 10° NNW visible
24 Oct 3.5 18:23:12 10° S 18:28:15 64° WSW 18:33:19 10° NNW visible
25 Oct 3.0 17:46:29 10° SSE 17:51:29 63° ENE 17:56:31 10° N visible
25 Oct 5.7 19:27:26 10° SW 19:30:57 19° W 19:34:31 10° NW visible
